Location: Newark
(44.6768°N, 22.5302°E)
Time: 09:57:37
(UTC+00:00)

CAS-6 - Pass Details

Date: 04 July 2022
Orbit: 613 x 634 km, 97.9° (Epoch: 14 August)

Event Time Altitude Azimuth Distance (km) Brightness Sun altitude
Exits shadow 19:20:23 - 102° (ESE) 2,213 ? -9.3°
Reaches altitude 10° 19:21:17 10° 92° (E) 1,999 ? -9.4°
Maximum altitude 19:23:32 14° 61° (ENE) 1,745 ? -9.7°
Drops below altitude 10° 19:25:46 10° 30° (NNE) 1,999 ? -10.0°
Sets 19:28:53 0° 5° (N) 2,906 ? -10.3°
